Weather History for Bangor, ME

Change the Weather History Date:

Tuesday, September 10, 2013

  Actual Average Record
Temperature  
Mean Temperature 59 °F 61 °F  
Max Temperature 67 °F 72 °F 95 °F (2002)
Min Temperature 51 °F 50 °F 32 °F (1928)
Degree Days  
Heating Degree Days 6 5  
Month to date heating degree days 53 39  
Since 1 July heating degree days 85 102  
Cooling Degree Days 0 1  
Month to date cooling degree days 21 14  
Year to date cooling degree days 343 308  
Growing Degree Days 9 (Base 50)    
Moisture  
Dew Point 55 °F    
Average Humidity 85    
Maximum Humidity 97    
Minimum Humidity 72    
Precipitation  
Precipitation 0.00 in 0.12 in 1.02 in (1999)
Month to date precipitation 4.90 1.06  
Year to date precipitation 30.08 27.31  
Snow  
Snow 0.00 in 0.00 in 0.00 in (2002)
Month to date snowfall 0.0 0.0  
Since 1 July snowfall 0.0 0.0  
Since 1 September snowfall 0.0 0.0  
Snow Depth 0.00 in    
Sea Level Pressure  
Sea Level Pressure 30.07 in    
Wind  
Wind Speed 5 mph (South)    
Max Wind Speed 12 mph    
Max Gust Speed 16 mph    
Visibility 10 miles    
Events      
T = Trace of Precipitation, MM = Missing Value Source: NWS Daily Summary

Daily Weather History Graph

Daily Weather History Graph

Search for Another Location

Airport:

Trip Planner

Search our weather history database for the weather conditions in past years. The results will help you decide how hot, cold, wet, or windy it might be!

Date:

Astronomy

Sep. 10, 2013 Rise Set
Actual Time 6:08 AM EDT 6:55 PM EDT
Civil Twilight 5:38 AM EDT 7:24 PM EDT
Nautical Twilight 5:03 AM EDT 7:59 PM EDT
Astronomical Twilight 4:26 AM EDT 8:36 PM EDT
Moon 11:45 AM EDT (9/10) 9:39 PM EDT (9/10)
Length of Visible Light 13h 45m
Length of Day
12h 46m
Waxing Crescent, 28% of the Moon is Illuminated
Sep 10
Waxing Crescent
Sep 12
First Quarter
Sep 19
Full
Sep 26
Last Quarter
Oct 4
New

Hourly Weather History & Observations

Time (EDT) Temp. Dew Point Humidity Pressure Visibility Wind Dir Wind Speed Gust Speed Precip Events Conditions
12:53 AM 54.0 °F 48.9 °F 83% 30.08 in 10.0 mi South 4.6 mph - N/A   Mostly Cloudy
1:53 AM 55.0 °F 50.0 °F 83% 30.08 in 10.0 mi South 5.8 mph - N/A   Mostly Cloudy
2:53 AM 55.0 °F 50.0 °F 83% 30.09 in 10.0 mi SSW 3.5 mph - N/A   Mostly Cloudy
3:53 AM 54.0 °F 50.0 °F 86% 30.09 in 10.0 mi SSW 3.5 mph - N/A   Mostly Cloudy
4:53 AM 53.1 °F 50.0 °F 89% 30.08 in 10.0 mi South 4.6 mph - N/A   Mostly Cloudy
5:53 AM 53.1 °F 50.0 °F 89% 30.08 in 10.0 mi SSW 6.9 mph - N/A   Mostly Cloudy
6:53 AM 52.0 °F 50.0 °F 93% 30.09 in 10.0 mi South 3.5 mph - N/A   Mostly Cloudy
7:53 AM 57.0 °F 52.0 °F 83% 30.09 in 10.0 mi SSW 6.9 mph - N/A   Mostly Cloudy
8:53 AM 57.9 °F 52.0 °F 81% 30.09 in 10.0 mi South 9.2 mph - N/A   Mostly Cloudy
9:53 AM 62.1 °F 54.0 °F 75% 30.09 in 10.0 mi South 5.8 mph - N/A   Mostly Cloudy
10:53 AM 64.9 °F 55.0 °F 70% 30.08 in 10.0 mi South 6.9 mph - N/A   Mostly Cloudy
11:53 AM 64.9 °F 55.9 °F 73% 30.08 in 10.0 mi SSW 5.8 mph - N/A   Overcast
12:53 PM 66.9 °F 57.0 °F 70% 30.06 in 10.0 mi SSE 6.9 mph - N/A   Overcast
1:53 PM 66.0 °F 57.9 °F 75% 30.06 in 10.0 mi South 8.1 mph - N/A   Overcast
2:53 PM 66.0 °F 57.9 °F 75% 30.04 in 10.0 mi SSE 9.2 mph - N/A   Overcast
3:53 PM 64.0 °F 57.9 °F 80% 30.04 in 10.0 mi South 10.4 mph - N/A   Overcast
4:53 PM 64.0 °F 57.9 °F 80% 30.05 in 10.0 mi South 5.8 mph - N/A   Overcast
5:53 PM 64.0 °F 59.0 °F 84% 30.04 in 10.0 mi South 5.8 mph - N/A   Overcast
6:35 PM 62.6 °F 59.0 °F 88% 30.05 in 10.0 mi SSE 6.9 mph - N/A   Overcast
6:53 PM 63.0 °F 59.0 °F 87% 30.05 in 10.0 mi South 5.8 mph - N/A   Overcast
7:53 PM 62.1 °F 57.9 °F 86% 30.06 in 10.0 mi South 5.8 mph - N/A   Mostly Cloudy
8:53 PM 61.0 °F 59.0 °F 93% 30.07 in 10.0 mi SSW 3.5 mph - N/A   Mostly Cloudy
9:32 PM 60.8 °F 57.2 °F 88% 30.07 in 8.0 mi South 3.5 mph - N/A   Mostly Cloudy
9:53 PM 60.1 °F 57.9 °F 93% 30.07 in 8.0 mi South 4.6 mph - N/A   Scattered Clouds
10:53 PM 61.0 °F 57.9 °F 90% 30.06 in 9.0 mi South 3.5 mph - N/A   Overcast
11:28 PM 60.8 °F 57.2 °F 88% 30.06 in 8.0 mi SSW 3.5 mph - N/A   Overcast
11:53 PM 61.0 °F 59.0 °F 93% 30.05 in 8.0 mi South 3.5 mph - N/A   Overcast